sat.trackr.live / text

‹ back to catalog

ONEWEB-0717

NORAD 55178 · 2023-004AQ

PAYLOAD ACTIVE UNKNOWN

§ Identity

Operator
Country
UK
Launch date
2023-01-10
Launch site
AFETR
Launch vehicle
Mass (kg)
RCS (m²)

Purposes: comms

External: N2YO · Heavens-Above · Gunter

§ Orbital elements

Epoch: 2026-09-20T00:35:09.962304Z

Period
109.29 min
Inclination
87.9210°
Eccentricity
0.0001764
Mean motion
13.17650982 rev/d
Perigee alt
1,192.4 km
Apogee alt
1,195.0 km
Semi-major
7,571.8 km
B*
1.3912e-4
RAAN
347.0317°
Arg perigee
111.6776°
Mean anomaly
248.4543°
Rev number
18,012

§ Raw data

ONEWEB-07171 55178U 23004AQ  26263.02442086  .00000067  00000+0  13912-3 0  99912 55178  87.9210 347.0317 0001764 111.6776 248.4543 13.17650982180121

JSON: /api/v1/satellites/55178 · /tle

For live sub-satellite position, see the globe view (requires WebGL).

§ Visibility from observer

Set your observer location to see the next 7 days of passes ≥ 10°. The values pass through the URL so the page stays shareable.

No JS? Fill the form by hand. The geolocation button needs JavaScript.